UAL154 PKWA-PTSA

Flight info

Callsign UAL154
Flight time 0h 57m
Altitude 34000
Route STEFF LECWI
Aircraft B738/M-SDE2E3FGHIRWXY/LB1

Departure

Time 2026-05-05 15:28
Airport Bucholz Army Air Field (PKWA)

Arrival

Time 2026-05-05 16:26
Airport Kosrae International Airport (PTSA)
Time Latitude Longitude Altitude Speed Heading
2026-05-05 15:11 8.72384 167.73818 -49 ft 0 kts 343°
2026-05-05 15:24 8.72385 167.73818 -37 ft 0 kts 356°
2026-05-05 15:24 8.72387 167.73824 -37 ft 1 kts 62°
2026-05-05 15:24 8.72382 167.73828 -49 ft 1 kts 146°
2026-05-05 15:24 8.72352 167.73836 -40 ft 7 kts 171°
2026-05-05 15:25 8.72329 167.73815 -51 ft 7 kts 236°
2026-05-05 15:25 8.72305 167.73743 -49 ft 15 kts 252°
2026-05-05 15:25 8.72264 167.73613 -48 ft 23 kts 253°
2026-05-05 15:25 8.72209 167.73431 -40 ft 31 kts 252°
2026-05-05 15:26 8.72150 167.73239 -41 ft 28 kts 253°
2026-05-05 15:26 8.72089 167.73042 -53 ft 28 kts 252°
2026-05-05 15:26 8.72029 167.72847 -49 ft 29 kts 252°
2026-05-05 15:26 8.71967 167.72645 -43 ft 28 kts 251°
2026-05-05 15:27 8.71912 167.72463 -44 ft 26 kts 253°
2026-05-05 15:27 8.71840 167.72301 -47 ft 23 kts 209°
2026-05-05 15:27 8.71759 167.72343 -51 ft 10 kts 77°
2026-05-05 15:27 8.71768 167.72377 -43 ft 27 kts 75°
2026-05-05 15:28 8.71908 167.72832 -45 ft 106 kts 73°
2026-05-05 15:28 8.72183 167.73744 165 ft 151 kts 74°
2026-05-05 15:28 8.72497 167.74851 762 ft 178 kts 79°
2026-05-05 15:28 8.72349 167.76077 1539 ft 189 kts 113°
2026-05-05 15:29 8.71401 167.77109 1804 ft 219 kts 146°
2026-05-05 15:29 8.69864 167.77500 2296 ft 238 kts 174°
2026-05-05 15:29 8.68185 167.77147 2670 ft 268 kts 202°
2026-05-05 15:29 8.66687 167.75951 3316 ft 283 kts 225°
2026-05-05 15:30 8.65497 167.74374 4266 ft 282 kts 232°
2026-05-05 15:30 8.64396 167.72702 5044 ft 289 kts 234°
2026-05-05 15:30 8.63307 167.70993 5852 ft 291 kts 234°
2026-05-05 15:30 8.62206 167.69265 6691 ft 292 kts 234°
2026-05-05 15:31 8.61090 167.67530 7406 ft 296 kts 234°
2026-05-05 15:31 8.59963 167.65794 8221 ft 297 kts 233°
2026-05-05 15:31 8.58814 167.64040 8917 ft 301 kts 233°
2026-05-05 15:31 8.57654 167.62276 9758 ft 300 kts 233°
2026-05-05 15:32 8.56480 167.60498 10328 ft 310 kts 233°
2026-05-05 15:32 8.55237 167.58628 10515 ft 332 kts 233°
2026-05-05 15:32 8.53920 167.56649 10657 ft 354 kts 233°
2026-05-05 15:32 8.52522 167.54548 10977 ft 367 kts 233°
2026-05-05 15:33 8.51077 167.52375 11484 ft 373 kts 234°
2026-05-05 15:33 8.49624 167.50193 12136 ft 375 kts 234°
2026-05-05 15:33 8.48161 167.47994 12684 ft 380 kts 234°
2026-05-05 15:33 8.46683 167.45772 13293 ft 382 kts 233°
2026-05-05 15:34 8.45191 167.43531 13834 ft 386 kts 234°
2026-05-05 15:34 8.43683 167.41269 14351 ft 389 kts 234°
2026-05-05 15:34 8.42166 167.38997 14899 ft 391 kts 234°
2026-05-05 15:34 8.40635 167.36703 15385 ft 394 kts 234°
2026-05-05 15:35 8.39098 167.34400 15910 ft 396 kts 234°
2026-05-05 15:35 8.37550 167.32080 16385 ft 400 kts 234°
2026-05-05 15:35 8.35989 167.29739 16862 ft 403 kts 234°
2026-05-05 15:35 8.34420 167.27387 17375 ft 405 kts 234°
2026-05-05 15:36 8.32856 167.25042 17781 ft 409 kts 234°
2026-05-05 15:36 8.31260 167.22651 18249 ft 411 kts 234°
2026-05-05 15:36 8.29658 167.20251 18660 ft 413 kts 234°
2026-05-05 15:36 8.28043 167.17835 19031 ft 416 kts 234°
2026-05-05 15:37 8.26421 167.15409 19395 ft 419 kts 234°
2026-05-05 15:37 8.24783 167.12959 19797 ft 421 kts 234°
2026-05-05 15:37 8.23134 167.10494 20153 ft 424 kts 235°
2026-05-05 15:37 8.21476 167.08014 20540 ft 426 kts 235°
2026-05-05 15:38 8.19813 167.05527 20875 ft 429 kts 235°
2026-05-05 15:38 8.18140 167.03025 21269 ft 431 kts 235°
2026-05-05 15:38 8.16479 167.00542 21635 ft 433 kts 235°
2026-05-05 15:38 8.14787 166.98012 21958 ft 436 kts 235°
2026-05-05 15:39 8.13087 166.95471 22326 ft 437 kts 235°
2026-05-05 15:39 8.11378 166.92918 22669 ft 439 kts 235°
2026-05-05 15:39 8.09664 166.90357 23000 ft 441 kts 235°
2026-05-05 15:39 8.07936 166.87776 23312 ft 444 kts 235°
2026-05-05 15:40 8.06203 166.85188 23608 ft 445 kts 235°
2026-05-05 15:40 8.04460 166.82586 23863 ft 447 kts 235°
2026-05-05 15:40 8.02713 166.79980 24126 ft 449 kts 235°
2026-05-05 15:40 8.00984 166.77398 24405 ft 450 kts 235°
2026-05-05 15:41 7.99228 166.74778 24674 ft 451 kts 234°
2026-05-05 15:41 7.97466 166.72148 24916 ft 453 kts 235°
2026-05-05 15:41 7.95698 166.69512 25161 ft 454 kts 235°
2026-05-05 15:41 7.93926 166.66868 25413 ft 456 kts 234°
2026-05-05 15:42 7.92151 166.64221 25650 ft 457 kts 234°
2026-05-05 15:42 7.90371 166.61566 25890 ft 459 kts 234°
2026-05-05 15:42 7.88570 166.58881 26134 ft 460 kts 234°
2026-05-05 15:42 7.86773 166.56202 26380 ft 461 kts 234°
2026-05-05 15:43 7.84968 166.53513 26597 ft 463 kts 234°
2026-05-05 15:43 7.83165 166.50828 26817 ft 464 kts 234°
2026-05-05 15:43 7.81353 166.48129 27031 ft 466 kts 234°
2026-05-05 15:43 7.79530 166.45415 27235 ft 467 kts 234°
2026-05-05 15:44 7.77709 166.42702 27437 ft 469 kts 234°
2026-05-05 15:44 7.75876 166.39973 27737 ft 467 kts 234°
2026-05-05 15:44 7.74064 166.37275 28160 ft 464 kts 234°
2026-05-05 15:44 7.72248 166.34573 28288 ft 468 kts 234°
2026-05-05 15:45 7.70415 166.31846 28368 ft 472 kts 234°
2026-05-05 15:45 7.68569 166.29101 28488 ft 475 kts 234°
2026-05-05 15:45 7.66735 166.26374 28686 ft 475 kts 234°
2026-05-05 15:45 7.64859 166.23584 29009 ft 474 kts 234°
2026-05-05 15:46 7.63038 166.20874 29339 ft 471 kts 234°
2026-05-05 15:46 7.61199 166.18140 29640 ft 470 kts 234°
2026-05-05 15:46 7.59362 166.15409 29893 ft 470 kts 234°
2026-05-05 15:46 7.57526 166.12681 30123 ft 470 kts 234°
2026-05-05 15:47 7.55695 166.09959 30386 ft 469 kts 234°
2026-05-05 15:47 7.54459 166.08123 30569 ft 467 kts 234°
2026-05-05 15:47 7.52046 166.04539 30928 ft 466 kts 234°
2026-05-05 15:47 7.50228 166.01839 31187 ft 465 kts 234°
2026-05-05 15:48 7.48413 165.99144 31456 ft 464 kts 234°
2026-05-05 15:48 7.46604 165.96459 31737 ft 462 kts 234°
2026-05-05 15:48 7.44805 165.93789 32023 ft 461 kts 234°
2026-05-05 15:48 7.43004 165.91116 32280 ft 460 kts 234°
2026-05-05 15:49 7.41209 165.88452 32551 ft 459 kts 234°
2026-05-05 15:49 7.39413 165.85789 32851 ft 457 kts 234°
2026-05-05 15:49 7.37627 165.83139 33131 ft 456 kts 234°
2026-05-05 15:49 7.35844 165.80495 33413 ft 455 kts 234°
2026-05-05 15:50 7.34069 165.77863 33703 ft 454 kts 235°
2026-05-05 15:50 7.32296 165.75234 33856 ft 454 kts 234°
2026-05-05 15:50 7.30518 165.72598 33852 ft 456 kts 234°
2026-05-05 15:51 7.26956 165.67320 33847 ft 454 kts 234°
2026-05-05 15:51 7.23441 165.62112 33849 ft 451 kts 234°
2026-05-05 15:52 7.19924 165.56903 33853 ft 449 kts 234°
2026-05-05 15:52 7.16397 165.51683 33865 ft 454 kts 234°
2026-05-05 15:53 7.12821 165.46390 33859 ft 460 kts 234°
2026-05-05 15:53 7.09187 165.41014 33857 ft 466 kts 234°
2026-05-05 15:54 7.05517 165.35585 33854 ft 471 kts 234°
2026-05-05 15:54 7.01812 165.30104 33851 ft 475 kts 234°
2026-05-05 15:55 6.98117 165.24646 33849 ft 477 kts 234°
2026-05-05 15:55 6.94283 165.19180 33846 ft 478 kts 233°
2026-05-05 15:56 6.90402 165.13735 33846 ft 479 kts 233°
2026-05-05 15:56 6.86522 165.08277 33849 ft 479 kts 233°
2026-05-05 15:57 6.82658 165.02820 33846 ft 479 kts 233°
2026-05-05 15:57 6.78787 164.97349 33843 ft 479 kts 233°
2026-05-05 15:58 6.74918 164.91879 33839 ft 479 kts 233°
2026-05-05 15:58 6.71073 164.86448 33840 ft 479 kts 233°
2026-05-05 15:59 6.67209 164.80992 33840 ft 479 kts 233°
2026-05-05 15:59 6.63344 164.75535 33842 ft 479 kts 233°
2026-05-05 16:00 6.59474 164.70075 33832 ft 479 kts 233°
2026-05-05 16:00 6.55603 164.64614 33834 ft 480 kts 233°
2026-05-05 16:01 6.51719 164.59140 33837 ft 481 kts 233°
2026-05-05 16:01 6.47856 164.53692 33835 ft 481 kts 232°
2026-05-05 16:02 6.43950 164.48184 33825 ft 479 kts 233°
2026-05-05 16:02 6.40124 164.42792 33824 ft 474 kts 233°
2026-05-05 16:02 6.38208 164.40092 33693 ft 475 kts 233°
2026-05-05 16:03 6.36272 164.37367 33052 ft 479 kts 233°
2026-05-05 16:03 6.34349 164.34658 32395 ft 474 kts 233°
2026-05-05 16:03 6.32441 164.31971 31886 ft 469 kts 233°
2026-05-05 16:03 6.30547 164.29305 31422 ft 468 kts 233°
2026-05-05 16:04 6.28658 164.26645 30937 ft 469 kts 233°
2026-05-05 16:04 6.26760 164.23974 30453 ft 470 kts 233°
2026-05-05 16:04 6.25493 164.22192 30109 ft 471 kts 233°
2026-05-05 16:04 6.22971 164.18642 29378 ft 473 kts 233°
2026-05-05 16:05 6.21669 164.16811 29010 ft 473 kts 233°
2026-05-05 16:05 6.19758 164.14122 28463 ft 472 kts 233°
2026-05-05 16:05 6.17859 164.11451 27947 ft 474 kts 233°
2026-05-05 16:05 6.15915 164.08717 27415 ft 476 kts 233°
2026-05-05 16:06 6.14005 164.06030 26900 ft 477 kts 233°
2026-05-05 16:06 6.12074 164.03317 26361 ft 477 kts 233°
2026-05-05 16:06 6.10145 164.00605 25849 ft 478 kts 233°
2026-05-05 16:06 6.08210 163.97885 25306 ft 478 kts 233°
2026-05-05 16:07 6.06276 163.95168 24766 ft 480 kts 233°
2026-05-05 16:07 6.04344 163.92453 24216 ft 474 kts 233°
2026-05-05 16:07 6.02442 163.89780 23689 ft 467 kts 233°
2026-05-05 16:07 6.00559 163.87133 23102 ft 463 kts 233°
2026-05-05 16:08 5.98688 163.84505 22531 ft 459 kts 233°
2026-05-05 16:08 5.96838 163.81908 21995 ft 457 kts 233°
2026-05-05 16:08 5.94982 163.79302 21463 ft 458 kts 233°
2026-05-05 16:08 5.93121 163.76690 20945 ft 461 kts 233°
2026-05-05 16:09 5.91258 163.74075 20397 ft 458 kts 233°
2026-05-05 16:09 5.89410 163.71480 19859 ft 455 kts 233°
2026-05-05 16:09 5.87571 163.68899 19329 ft 454 kts 233°
2026-05-05 16:09 5.85734 163.66321 18801 ft 453 kts 233°
2026-05-05 16:10 5.83899 163.63747 18272 ft 452 kts 233°
2026-05-05 16:10 5.82099 163.61222 17682 ft 447 kts 233°
2026-05-05 16:10 5.80301 163.58699 17148 ft 441 kts 233°
2026-05-05 16:10 5.78523 163.56203 16635 ft 438 kts 233°
2026-05-05 16:11 5.76742 163.53706 16109 ft 441 kts 234°
2026-05-05 16:11 5.71410 163.46230 14550 ft 434 kts 234°
2026-05-05 16:12 5.69645 163.43755 14038 ft 432 kts 234°
2026-05-05 16:12 5.66172 163.38885 12984 ft 429 kts 234°
2026-05-05 16:13 5.61881 163.31518 11768 ft 416 kts 244°
2026-05-05 16:13 5.60691 163.28887 11320 ft 409 kts 245°
2026-05-05 16:13 5.59529 163.26305 10864 ft 405 kts 244°
2026-05-05 16:14 5.57206 163.21248 10273 ft 392 kts 243°
2026-05-05 16:14 5.55014 163.16570 9935 ft 348 kts 242°
2026-05-05 16:15 5.53066 163.12445 9804 ft 305 kts 242°
2026-05-05 16:15 5.51331 163.08784 9319 ft 284 kts 242°
2026-05-05 16:16 5.49623 163.05194 8349 ft 284 kts 241°
2026-05-05 16:16 5.47945 163.01656 7619 ft 276 kts 242°
2026-05-05 16:17 5.46332 162.98254 7062 ft 265 kts 242°
2026-05-05 16:17 5.45543 162.96591 6798 ft 265 kts 241°
2026-05-05 16:18 5.43961 162.93255 6262 ft 264 kts 241°
2026-05-05 16:18 5.43176 162.91602 5969 ft 266 kts 242°
2026-05-05 16:18 5.41588 162.88254 5426 ft 265 kts 242°
2026-05-05 16:19 5.40795 162.86582 5158 ft 265 kts 242°
2026-05-05 16:19 5.40007 162.84920 4888 ft 264 kts 242°
2026-05-05 16:19 5.38428 162.81591 4364 ft 263 kts 242°
2026-05-05 16:20 5.36851 162.78286 3986 ft 262 kts 239°
2026-05-05 16:20 5.34088 162.76433 3717 ft 234 kts 180°
2026-05-05 16:21 5.31116 162.77131 3534 ft 216 kts 153°
2026-05-05 16:22 5.28788 162.80289 3029 ft 193 kts 80°
2026-05-05 16:22 5.29598 162.82724 2664 ft 179 kts 69°
2026-05-05 16:23 5.30582 162.84917 2220 ft 162 kts 66°
2026-05-05 16:23 5.31044 162.85925 2044 ft 156 kts 67°
2026-05-05 16:23 5.31917 162.87833 1615 ft 147 kts 65°
2026-05-05 16:24 5.32350 162.88778 1429 ft 149 kts 66°
2026-05-05 16:24 5.32776 162.89709 1239 ft 142 kts 66°
2026-05-05 16:24 5.33583 162.91475 838 ft 136 kts 66°
2026-05-05 16:25 5.33975 162.92330 669 ft 135 kts 67°
2026-05-05 16:25 5.34578 162.94110 364 ft 139 kts 63°
2026-05-05 16:25 5.35064 162.94897 148 ft 129 kts 58°
2026-05-05 16:26 5.35798 162.95987 27 ft 47 kts 56°
2026-05-05 16:26 5.35940 162.96208 29 ft 2 kts 330°
2026-05-05 16:27 5.35939 162.96197 29 ft 2 kts 246°
2026-05-05 16:27 5.35924 162.96173 29 ft 8 kts 238°
2026-05-05 16:27 5.35877 162.96102 28 ft 17 kts 235°
2026-05-05 16:27 5.35793 162.95981 27 ft 25 kts 236°
2026-05-05 16:28 5.35683 162.95820 27 ft 28 kts 236°
2026-05-05 16:28 5.35579 162.95665 27 ft 26 kts 236°
2026-05-05 16:28 5.35478 162.95539 28 ft 18 kts 203°
2026-05-05 16:28 5.35396 162.95557 27 ft 6 kts 167°
2026-05-05 16:29 5.35382 162.95564 27 ft 1 kts 112°
2026-05-05 16:29 5.35374 162.95566 27 ft 1 kts 183°
2026-05-05 16:29 5.35367 162.95558 27 ft 2 kts 232°
2026-05-05 16:29 5.35358 162.95551 27 ft 2 kts 202°
2026-05-05 16:30 5.35335 162.95565 28 ft 4 kts 136°
2026-05-05 16:30 5.35328 162.95581 28 ft 1 kts 86°
2026-05-05 16:30 5.35335 162.95590 28 ft 2 kts 53°
2026-05-05 16:30 5.35340 162.95596 28 ft 0 kts 53°